Total_Precipitation_Accumulation
1.63 1.66 1.82 2.00 2.07 2.14 2.29 2.25 2.19 2.21 2.33 2.40 2.43 2.44 2.35 2.25 2.38 2.61 2.68 2.88 2.97 3.04 3.02 3.08 3.06 3.20 3.25 3.18 3.35 3.44 3.64 3.83 3.38 2.68 2.76 2.93 2.92 2.70 2.54 2.33 2.19 2.14 2.09
1.58 1.69 1.84 1.95 2.02 2.11 2.17 2.28 2.33 2.31 2.41 2.47 2.49 2.46 2.26 2.23 2.36 2.46 2.56 2.75 2.87 2.97 3.11 3.26 2.99 3.15 3.28 3.23 3.29 3.24 3.34 3.67 3.48 3.20 3.11 3.18 3.14 2.88 2.67 2.42 2.04 1.82 1.87
1.77 1.83 1.82 1.85 1.85 1.93 2.07 2.17 2.30 2.37 2.44 2.48 2.49 2.38 2.31 2.36 2.48 2.56 2.66 2.79 2.84 2.89 3.04 3.03 2.96 3.14 3.02 3.14 3.24 3.14 3.14 3.19 3.34 3.18 2.93 3.01 2.95 2.78 2.64 2.34 2.08 2.04 1.77
1.74 1.79 1.82 1.85 1.93 2.06 2.17 2.26 2.32 2.31 2.33 2.29 2.23 2.32 2.39 2.43 2.49 2.55 2.58 2.61 2.64 2.69 2.68 2.59 2.53 2.59 2.65 2.88 2.87 2.85 2.95 3.06 3.16 3.02 2.87 2.91 2.91 2.94 2.82 2.49 2.35 2.20 1.96
1.72 1.70 1.81 2.01 2.08 2.14 2.14 2.15 2.20 2.19 2.09 2.23 2.23 2.32 2.39 2.34 2.22 2.37 2.43 2.38 2.55 2.47 2.32 2.26 2.27 2.40 2.47 2.56 2.38 2.47 2.71 2.76 2.84 2.92 2.90 3.02 3.02 3.16 3.00 2.71 2.58 2.47 2.18
1.70 1.80 1.90 1.97 1.95 2.04 2.07 2.06 2.09 2.14 2.20 2.24 2.23 2.33 2.38 2.21 2.34 2.41 2.45 2.45 2.49 2.40 2.35 2.26 2.13 2.18 2.23 2.27 2.24 2.26 2.44 2.54 2.68 2.86 2.87 2.93 2.98 3.01 3.04 2.91 2.80 2.60 2.28
1.68 1.75 1.98 2.09 2.00 2.08 2.11 2.14 2.13 2.16 2.32 2.37 2.45 2.50 2.41 2.53 2.56 2.37 2.41 2.36 2.40 2.40 2.41 2.38 2.07 1.89 2.13 2.08 2.20 2.14 2.07 2.15 2.26 2.41 2.46 2.55 2.81 2.95 3.10 3.03 3.06 2.91 2.56
1.79 1.93 2.24 2.41 2.24 2.24 2.27 2.28 2.34 2.46 2.51 2.56 2.59 2.50 2.45 2.54 2.60 2.26 2.21 2.11 2.16 2.23 2.24 2.30 2.35 2.27 2.27 2.30 2.34 2.25 2.08 2.03 2.17 2.13 2.09 2.31 2.71 3.07 3.17 3.13 3.23 3.09 2.70
2.00 2.17 2.44 2.68 2.78 2.72 2.55 2.61 2.69 2.70 2.65 2.71 2.76 2.73 2.59 2.65 2.59 2.21 2.09 1.94 2.00 2.04 2.09 2.09 2.14 2.07 2.17 2.11 2.05 2.00 1.93 1.85 1.85 1.88 1.86 1.98 2.30 2.75 2.99 3.05 3.16 3.11 2.83
2.15 2.19 2.42 2.70 2.82 2.79 2.76 2.95 3.05 2.92 2.80 2.83 2.70 2.57 2.45 2.47 2.48 2.14 1.95 1.81 1.89 1.96 2.06 2.02 2.02 1.93 1.94 1.85 1.74 1.74 1.66 1.67 1.81 1.85 1.80 1.77 1.88 2.21 2.62 2.62 2.72 2.91 2.65
2.32 2.31 2.43 2.69 3.00 2.96 3.02 3.11 3.16 3.14 3.15 3.13 3.00 2.85 2.63 2.51 2.54 2.22 2.01 1.80 1.83 1.88 1.80 1.77 1.79 1.82 1.64 1.60 1.58 1.55 1.61 1.68 1.82 1.86 1.84 1.85 1.92 2.01 2.14 2.25 2.39 2.52 2.51
2.43 2.43 2.50 2.78 2.91 2.94 3.10 3.16 3.27 3.40 3.39 3.34 3.29 3.00 2.84 2.71 2.44 2.15 1.98 1.94 1.99 1.99 1.88 1.82 1.85 1.80 1.60 1.54 1.38 1.34 1.49 1.49 1.47 1.59 1.64 1.64 1.71 1.78 1.88 2.09 2.29 2.41 2.46
2.20 2.24 2.35 2.53 2.67 2.85 2.97 2.92 3.00 3.15 3.12 3.09 3.02 2.85 2.83 2.91 2.70 2.26 1.96 1.89 1.97 1.98 2.04 2.12 1.93 1.79 1.67 1.58 1.55 1.50 1.41 1.31 1.35 1.41 1.45 1.43 1.53 1.68 1.90 2.12 2.32 2.56 2.55
2.05 2.05 2.18 2.41 2.56 2.67 2.75 2.72 2.77 2.80 2.85 2.88 2.87 2.77 2.76 2.87 2.83 2.50 2.16 1.95 1.88 1.83 1.84 1.85 1.76 1.74 1.64 1.51 1.49 1.41 1.27 1.28 1.34 1.33 1.39 1.47 1.61 1.82 1.94 1.94 2.04 2.30 2.50
2.20 2.17 2.30 2.38 2.45 2.60 2.69 2.74 2.76 2.73 2.72 2.73 2.69 2.60 2.59 2.67 2.72 2.54 2.24 2.04 1.95 1.93 1.88 1.83 1.80 1.83 1.72 1.62 1.55 1.53 1.56 1.57 1.50 1.43 1.49 1.59 1.66 1.76 1.89 1.93 1.99 2.06 2.09
2.40 2.36 2.33 2.28 2.34 2.33 2.36 2.34 2.35 2.31 2.32 2.29 2.26 2.17 2.10 2.27 2.30 2.02 1.87 1.89 1.91 1.92 1.79 1.73 1.80 1.85 1.82 1.78 1.74 1.68 1.68 1.67 1.62 1.59 1.61 1.68 1.76 1.84 1.92 2.03 2.15 2.16 2.04
2.49 2.36 2.24 2.14 2.13 2.14 2.19 2.25 2.30 2.24 2.19 2.10 2.02 1.88 1.75 1.95 2.00 1.86 1.76 1.75 1.71 1.70 1.60 1.62 1.67 1.77 1.86 1.80 1.71 1.64 1.60 1.63 1.72 1.72 1.72 1.77 1.87 1.95 2.02 2.08 2.22 2.35 2.27
2.51 2.40 2.19 2.08 2.05 2.05 2.18 2.25 2.24 2.22 2.17 1.97 1.84 1.78 1.64 1.70 1.80 1.76 1.69 1.55 1.46 1.42 1.41 1.55 1.65 1.72 1.81 1.78 1.69 1.70 1.73 1.76 1.76 1.77 1.82 1.88 1.96 2.02 2.06 2.10 2.18 2.31 2.32
2.45 2.38 2.26 2.22 2.22 2.12 2.08 2.12 2.10 2.09 2.12 2.04 1.85 1.81 1.81 1.77 1.83 1.79 1.62 1.41 1.44 1.45 1.45 1.49 1.55 1.64 1.70 1.72 1.76 1.81 1.86 1.91 1.87 1.89 1.96 2.06 2.07 2.14 2.09 2.11 2.26 2.45 2.45
2.13 2.18 2.16 2.21 2.20 2.14 2.13 2.15 2.19 2.23 2.25 2.13 1.99 1.88 1.78 1.76 1.74 1.74 1.61 1.51 1.50 1.48 1.48 1.54 1.61 1.67 1.73 1.78 1.90 2.00 2.03 2.08 2.10 2.10 2.15 2.19 2.14 2.15 2.16 2.18 2.28 2.34 2.37
1.88 1.84 1.83 1.80 1.85 1.96 2.02 2.12 2.24 2.30 2.32 2.20 1.97 1.82 1.73 1.57 1.58 1.55 1.57 1.63 1.62 1.65 1.70 1.72 1.78 1.86 1.90 1.97 2.06 2.16 2.22 2.22 2.25 2.20 2.20 2.30 2.30 2.29 2.32 2.27 2.25 2.34 2.37
1.93 1.76 1.61 1.57 1.62 1.76 1.98 2.13 2.21 2.16 2.11 2.05 1.94 1.86 1.86 1.61 1.49 1.49 1.53 1.56 1.59 1.64 1.68 1.71 1.72 1.79 1.86 1.94 2.00 2.07 2.13 2.16 2.18 2.19 2.16 2.18 2.19 2.17 2.24 2.25 2.22 2.32 2.45
1.74 1.55 1.39 1.38 1.46 1.64 1.89 2.20 2.22 2.01 1.87 1.83 1.88 1.87 1.83 1.74 1.64 1.57 1.58 1.56 1.54 1.51 1.53 1.62 1.65 1.70 1.77 1.80 1.82 1.90 1.94 1.96 1.98 2.04 2.11 2.07 2.10 2.13 2.17 2.23 2.24 2.29 2.39
1.60 1.47 1.35 1.34 1.41 1.55 1.83 2.13 2.07 1.90 1.79 1.80 1.83 1.85 1.81 1.78 1.71 1.65 1.64 1.63 1.58 1.52 1.50 1.57 1.60 1.62 1.66 1.73 1.71 1.67 1.65 1.66 1.67 1.81 1.99 2.10 2.13 2.17 2.14 2.17 2.24 2.24 2.34
1.50 1.47 1.42 1.45 1.51 1.67 1.95 2.13 2.04 1.91 1.85 1.83 1.83 1.89 1.90 1.84 1.80 1.79 1.80 1.82 1.79 1.76 1.68 1.57 1.53 1.50 1.48 1.53 1.59 1.59 1.65 1.53 1.45 1.50 1.63 1.82 1.91 2.00 2.02 2.07 2.21 2.28 2.33
1.49 1.50 1.50 1.54 1.61 1.76 1.91 1.97 1.94 1.90 1.93 1.89 1.87 1.90 1.98 2.01 1.98 1.98 1.98 1.92 1.85 1.77 1.64 1.53 1.45 1.45 1.44 1.38 1.34 1.35 1.36 1.30 1.29 1.36 1.40 1.47 1.60 1.73 1.89 1.98 2.05 2.14 2.17